PROBA-1 1 26958U 01049B 26071.61241150 .00003494 00000+0 22918-3 0 9994 2 26958 97.9640 76.7895 0057021 89.3359 271.4401 15.07050166329072 CUTE-1 (CO-55) 1 27844U 03031E 26071.51436966 .00000438 00000+0 20865-3 0 9996 2 27844 98.6778 81.2781 0010729 105.1263 255.1104 14.24268962177913 CUBESAT XI-IV (CO-57) 1 27848U 03031J 26071.52490781 .00000374 00000+0 18335-3 0 9994 2 27848 98.6808 81.0787 0010480 121.3489 238.8716 14.23563697177626 APRIZESAT 4 1 35684U 09041D 26071.62217558 .00001070 00000+0 13450-3 0 9995 2 35684 98.1481 145.0053 0042056 274.9040 84.7372 14.83715979897043 APRIZESAT 3 1 35686U 09041F 26071.38680491 .00001494 00000+0 13424-3 0 9991 2 35686 98.1900 220.0722 0062613 27.5995 332.8525 14.95911328901907 PROBA-2 1 36037U 09059B 26071.47130751 .00000352 00000+0 92721-4 0 9990 2 36037 98.2434 256.1656 0012493 215.0782 144.9594 14.54793678867467 APRIZESAT 5 1 37792U 11044E 26071.39081300 .00001744 00000+0 22835-3 0 9996 2 37792 98.2401 1.7348 0051513 315.6538 44.0552 14.80867868784468 APRIZESAT 6 1 37793U 11044F 26071.33798331 .00001191 00000+0 17517-3 0 9997 2 37793 98.2414 339.8458 0044108 37.2193 75.9443 14.76759375782857 PROBA-V 1 39159U 13021A 26071.54719193 .00000126 00000+0 73137-4 0 9992 2 39159 98.3510 54.9652 0005230 63.2199 296.9516 14.23574618667363 APRIZESAT 7 1 39416U 13066A 26071.40915929 .00002086 00000+0 21259-3 0 9991 2 39416 97.7596 26.0995 0036271 169.7253 190.4715 14.91292939666803 APRIZESAT 8 1 39425U 13066K 26071.41271661 .00001598 00000+0 17961-3 0 9992 2 39425 97.8119 20.3048 0044682 243.6813 115.9810 14.87433689665283 BUGSAT-1 (TITA) 1 40014U 14033E 26071.61148162 .00007363 00000+0 39910-3 0 9998 2 40014 98.0426 158.6019 0029502 148.4988 211.8016 15.14545419641212 SAUDISAT 4 1 40016U 14033G 26071.40357126 .00001005 00000+0 13928-3 0 9997 2 40016 97.7418 220.9729 0045534 29.9993 330.3814 14.79396089631763 APRIZESAT 9 1 40018U 14033J 26071.41570666 .00001269 00000+0 19350-3 0 9993 2 40018 97.8885 207.0744 0067018 150.5068 209.9948 14.74081540629306 APRIZESAT 10 1 40019U 14033K 26071.59247253 .00001076 00000+0 17656-3 0 9999 2 40019 97.9483 200.8006 0078127 221.5273 137.9982 14.70758755628058 TECHDEMOSAT-1 (TDS-1) 1 40076U 14037H 26071.50398983 .00011374 00000+0 67275-3 0 9998 2 40076 98.3773 54.2864 0005112 224.0007 136.0814 15.11641447633615 TECHNOSAT 1 42829U 17042E 26071.42151974 .00003889 00000+0 28223-3 0 9995 2 42829 97.4149 232.8684 0019346 66.8826 293.4437 15.04309541472156 FLYING LAPTOP 1 42831U 17042G 26071.64549726 .00002405 00000+0 19448-3 0 9990 2 42831 97.4278 231.1875 0019476 86.1040 274.2410 15.00539287471978 HAWK-A 1 43765U 18099H 26071.56668304 .00008268 00000+0 34601-3 0 9996 2 43765 97.4053 125.0943 0034271 264.9331 94.7994 15.23281828398387 HAWK-B 1 43794U 18099AN 26071.60760126 .00007462 00000+0 32957-3 0 9995 2 43794 97.4099 124.7434 0031258 282.7410 77.0332 15.21582603398347 HAWK-C 1 43799U 18099AT 26071.55699864 .00009551 00000+0 36045-3 0 9997 2 43799 97.4026 125.5405 0040377 266.8885 92.7734 15.26466887399161 SALSAT 1 46495U 20068K 26071.55405919 .00009897 00000+0 36214-3 0 9999 2 46495 97.8863 68.8510 0008110 284.2455 75.7882 15.28248963300591 HAWK-2C 1 47502U 21006CT 26071.09060603 .00007096 00000+0 22255-3 0 9997 2 47502 97.2419 117.3622 0007201 176.0285 184.1017 15.33326646284615 HAWK-2A 1 47505U 21006CW 26071.55090196 .00007674 00000+0 24032-3 0 9998 2 47505 97.2458 118.4335 0006773 177.0682 183.0601 15.33353049284680 HAWK-2B 1 47508U 21006CZ 26071.54773756 .00007863 00000+0 24616-3 0 9998 2 47508 97.2336 116.9245 0007450 175.4139 184.7174 15.33349627284683 HAWK-3B 1 48931U 21059BE 26071.49741273 .00042879 00000+0 49446-3 0 9994 2 48931 97.6726 259.6125 0005093 326.9798 33.1141 15.61820338262724 HAWK-3C 1 48948U 21059BX 26071.62530019 .00043441 00000+0 50065-3 0 9996 2 48948 97.6872 265.2567 0005405 328.5983 31.4951 15.61830958262749 HAWK-3A 1 48957U 21059CG 26071.49700133 .00043861 00000+0 50568-3 0 9991 2 48957 97.6806 262.4033 0005156 327.4956 32.5983 15.61820741262728 HAWK-5C 1 52754U 22057Y 26071.37523264 .00024448 00000+0 47392-3 0 9996 2 52754 97.6453 225.1580 0005525 67.1733 293.0099 15.47674999211351 HAWK-5B 1 52756U 22057AA 26071.37510150 .00024374 00000+0 47253-3 0 9992 2 52756 97.6458 223.4981 0005366 61.4594 298.7195 15.47673013211354 HAWK-5A 1 52757U 22057AB 26071.37482675 .00024409 00000+0 47317-3 0 9993 2 52757 97.6458 224.3320 0005834 63.5346 296.6501 15.47673058211357 HAWK-6B 1 55324U 23011A 26071.62597465 .00006599 00000+0 29155-3 0 9999 2 55324 40.5094 194.8826 0001573 55.9302 304.1657 15.21953061173124 HAWK-6C 1 55326U 23011C 26071.36292370 .00008050 00000+0 35374-3 0 9993 2 55326 40.4863 193.2769 0002110 31.4801 328.6134 15.21953741173091 HAWK-6A 1 55327U 23011D 26071.62539596 .00006881 00000+0 30364-3 0 9991 2 55327 40.4978 193.3583 0001727 29.6143 330.4763 15.21953252173136 HAWK-7A 1 56191U 23054P 26071.57388633 .00007440 00000+0 28982-3 0 9991 2 56191 97.2829 321.3691 0004080 44.2177 315.9387 15.26252518162285 HAWK-7B 1 56193U 23054R 26071.57381353 .00007344 00000+0 28614-3 0 9990 2 56193 97.2861 319.5965 0003515 55.9085 304.2487 15.26251571162285 HAWK-7C 1 56200U 23054Y 26071.63925684 .00007179 00000+0 27975-3 0 9992 2 56200 97.2833 320.4605 0003422 46.1364 314.0157 15.26252264162298